CZ-4B DEB

Satellite information

Favourite Embed

Satellite Type and Status

DEBRISIN ORBIT

Key statistics

Satellite CZ-4B DEB at a glance.

Uptime

1618

Days in orbit

Revolutions

≈ 13.9

Per day

Orbit

LEO

Low Earth Orbit

Inclination

65.9

Latest

Satellite identification and parameters

Extended collection of information and parameters for CZ-4B DEB.

Object identification

Identified? True

Debris? True

Object name: CZ-4B DEB

International designator: 2021-043B

Object number (NORAD): 48622

Object ID (CCSDS): 48622

Country: PEOPLES REPUBLIC OF CHINA (PRC)

Current information (Y/N): Y

RCS size: SMALL

Orbital parameters

Period: 103.785 minutes

Inclination: 65.8971 deg

SMA: 7315.621 km

Apoapsis: 961.661 km

Periapsis: 913.311 km

RAAN: 136.4898 deg

Eccentricy: 0.00330463

Argument of periapsis: 308.5491 deg

Mean anomaly: 51.2618 deg

Mean motion: 13.87477539 rev/day

Mean motion (dot): 0.00000167 rev/day2

B* drag term: 0.00021032997 1/REarth

Two-line elements (TLE)

Creation date: Oct. 22, 2025, 5:40 p.m.

Reference frame: TEME

Reference center: EARTH

Epoch: Oct. 22, 2025, 6:44 a.m. UTC

TLE line 0: 0 CZ-4B DEB

TLE line 1: 1 48622U 21043B 25295.28066885 .00000167 00000-0 21033-3 0 9994

TLE line 2: 2 48622 65.8971 136.4898 0033046 308.5491 51.2618 13.87477539224279

Live tracking on map

Real-time ground track for satellite CZ-4B DEB.

In-orbit conjunctions

A list of the most updated potential collisions computed for object CZ-4B DEB.

Target Orbit TCA Probability of collision Miss distance Type
CZ-6A DEB LEO 2025-01-02 17:28:20 0.0002619748 499.0 (m) DEBRIS
CZ-6A DEB SSO 2024-10-30 12:43:17 0.0001444218 110.0 (m) DEBRIS
THORAD AGENA D DEB SSO 2024-08-29 00:53:41 0.0001111733 300.0 (m) DEBRIS

Associated space launch

Haiyang (Chinese: "Ocean"), abbreviated HY, is a marine remote sensing satellite series planned by China.

CZ-4B DEB was lifted into orbit during the mission ‘Long March 4B | Haiyang 2D’, on board a Long March 4B space rocket.

The launch took place on May 19, 2021, 4:03 a.m. from Launch Area 4 (SLS-2 / 603).

For more information about the launch, click the button.

Launch to space Long March 4B | Haiyang 2D
Long March 4B | Haiyang 2D

Agency: N/A

Status: Launch Successful

Launch date: May 19, 2021, 4:03 a.m. UTC

Rocket: Long March 4B

Launch pad: Launch Area 4 (SLS-2 / 603)

Location: Jiuquan Satellite Launch Center, People's Republic of China

...

Latest news about this satellite

News about space launch
China launches Haiyang-2D Oceanography Satellite from Jiuquan

A Chinese Long March 4B rocket took a Haiyang oceanography satellite to orbit early Wednesday morning. Liftoff from the Jiuquan Satellite Launch Center occurred approximately 12:03 PM local time (04:03 UTC) on 19 May.

News about space launch
Chinese Long March rocket launches oceanography satellite

A Long March 4B rocket successfully launched an oceanography satellite Wednesday from northwestern China, hours before officials at a different spaceport scrubbed the planned launch of a cargo ship to deliver supplies to the Chinese space station.


Newsletter sign-up

Weekly statistics, charts and insights to help you stay on top of the space industry.